| time (UTC) | temp F | wind direction | speed MPH | gust MPH | rain 1hr in | rain 24hr in | rain mn in | humidity % | barometer mb |
| 20260902030009 | 84 | 299 | 3.0 | 5.0 | 0.00 | 0.00 | 0.00 | 54 | 1009.1 |
| 20260902024510 | 85 | 300 | 3.0 | 4.0 | 0.00 | 0.00 | 0.00 | 53 | 1008.8 |
| 20260902023023 | 85 | 303 | 2.0 | 4.0 | 0.00 | 0.00 | 0.00 | 54 | 1008.7 |
| 20260902021508 | 86 | 278 | 2.0 | 4.0 | 0.00 | 0.00 | 0.00 | 51 | 1008.5 |
| 20260902020008 | 87 | 299 | 3.0 | 7.0 | 0.00 | 0.00 | 0.00 | 48 | 1008.3 |
| 20260902014509 | 88 | 300 | 4.0 | 7.0 | 0.00 | 0.00 | 0.00 | 46 | 1008.2 |
| 20260902013002 | 89 | 293 | 4.0 | 10.0 | 0.00 | 0.00 | 0.00 | 44 | 1008.2 |
| 20260902011503 | 90 | 295 | 6.0 | 11.0 | 0.00 | 0.00 | 0.00 | 44 | 1008.2 |
| 20260902010059 | 90 | 290 | 5.0 | 10.0 | 0.00 | 0.00 | 0.00 | 44 | 1008.2 |
| 20260902004559 | 91 | 277 | 5.0 | 11.0 | 0.00 | 0.00 | 0.00 | 44 | 1008.2 |
| 20260902003104 | 91 | 309 | 4.0 | 11.0 | 0.00 | 0.00 | 0.00 | 44 | 1008.3 |
| 20260902001559 | 91 | 275 | 5.0 | 11.0 | 0.00 | 0.00 | 0.00 | 43 | 1008.4 |
| 20260902000056 | 92 | 283 | 7.0 | 12.0 | 0.00 | 0.00 | 0.00 | 42 | 1008.5 |
| 20260901234559 | 92 | 238 | 7.0 | 12.0 | 0.00 | 0.00 | 0.00 | 43 | 1008.7 |
| 20260901233050 | 92 | 293 | 4.0 | 11.0 | 0.00 | 0.00 | 0.00 | 41 | 1008.9 |
| 20260901231606 | 92 | 285 | 6.0 | 11.0 | 0.00 | 0.00 | 0.00 | 41 | 1009.0 |
| 20260901230046 | 93 | 297 | 4.0 | 9.0 | 0.00 | 0.00 | 0.00 | 41 | 1009.0 |
| 20260901224542 | 92 | 278 | 2.0 | 10.0 | 0.00 | 0.00 | 0.00 | 43 | 1009.2 |
| 20260901223041 | 92 | 264 | 5.0 | 9.0 | 0.00 | 0.00 | 0.00 | 43 | 1009.3 |
| 20260901221604 | 91 | 287 | 2.0 | 8.0 | 0.00 | 0.00 | 0.00 | 44 | 1009.6 |
| 20260901220042 | 91 | 264 | 5.0 | 9.0 | 0.00 | 0.00 | 0.00 | 43 | 1009.7 |
| 20260901214531 | 93 | 276 | 1.0 | 6.0 | 0.00 | 0.00 | 0.00 | 42 | 1010.0 |
| 20260901213028 | 94 | 260 | 0.0 | 5.0 | 0.00 | 0.04 | 0.00 | 40 | 1010.3 |
| 20260901211527 | 93 | 285 | 0.0 | 3.0 | 0.00 | 0.04 | 0.00 | 42 | 1010.6 |
| 20260901210029 | 91 | 274 | 3.0 | 8.0 | 0.00 | 0.04 | 0.00 | 42 | 1010.8 |
| 20260901204521 | 91 | 286 | 3.0 | 8.0 | 0.00 | 0.04 | 0.00 | 43 | 1011.0 |
| 20260901203017 | 90 | 294 | 6.0 | 10.0 | 0.00 | 0.14 | 0.00 | 43 | 1011.3 |
| 20260901201515 | 91 | 298 | 3.0 | 5.0 | 0.00 | 0.14 | 0.00 | 45 | 1011.5 |
| 20260901200025 | 90 | 281 | 4.0 | 6.0 | 0.00 | 0.14 | 0.00 | 44 | 1011.7 |
| 20260901194511 | 91 | 259 | 1.0 | 3.0 | 0.00 | 0.14 | 0.00 | 45 | 1012.0 |
| 20260901193010 | 90 | 252 | 1.0 | 5.0 | 0.00 | 0.24 | 0.00 | 46 | 1012.2 |
| 20260901191518 | 88 | 257 | 0.0 | 3.0 | 0.00 | 0.24 | 0.00 | 44 | 1012.4 |
| 20260901190005 | 91 | 271 | 0.0 | 4.0 | 0.00 | 0.24 | 0.00 | 46 | 1012.6 |
| 20260901184504 | 88 | 289 | 0.0 | 4.0 | 0.00 | 0.24 | 0.00 | 48 | 1012.8 |
| 20260901183001 | 87 | 262 | 0.0 | 3.0 | 0.00 | 0.39 | 0.00 | 49 | 1012.9 |
| 20260901181501 | 88 | 281 | 0.0 | 0.0 | 0.00 | 0.39 | 0.00 | 46 | 1013.0 |
| 20260901180059 | 88 | 181 | 0.0 | 4.0 | 0.00 | 0.39 | 0.00 | 48 | 1013.1 |
| 20260901174528 | 88 | 96 | 0.0 | 3.0 | 0.00 | 0.39 | 0.00 | 47 | 1013.2 |
| 20260901173025 | 87 | 176 | 0.0 | 0.0 | 0.00 | 0.47 | 0.00 | 50 | 1013.2 |
| 20260901171520 | 86 | 172 | 0.0 | 3.0 | 0.00 | 0.47 | 0.00 | 53 | 1013.3 |
| 20260901170019 | 85 | 263 | 0.0 | 3.0 | 0.00 | 0.47 | 0.00 | 50 | 1013.3 |
| 20260901164517 | 84 | 160 | 0.0 | 3.0 | 0.00 | 0.47 | 0.00 | 55 | 1013.3 |
| 20260901163014 | 83 | 115 | 0.0 | 2.0 | 0.00 | 0.47 | 0.00 | 60 | 1013.2 |
| 20260901161523 | 83 | 119 | 1.0 | 4.0 | 0.00 | 0.47 | 0.00 | 58 | 1013.3 |
| 20260901160009 | 83 | 148 | 0.0 | 4.0 | 0.00 | 0.47 | 0.00 | 61 | 1013.4 |
| 20260901154511 | 81 | 121 | 0.0 | 3.0 | 0.00 | 0.47 | 0.00 | 61 | 1013.4 |
| 20260901134601 | 71 | 94 | 0.0 | 4.0 | 0.00 | 0.47 | 0.00 | 85 | 1013.1 |
| 20260901133058 | 70 | 105 | 0.0 | 2.0 | 0.00 | 0.61 | 0.00 | 87 | 1013.0 |
| 20260901131553 | 69 | 136 | 0.0 | 2.0 | 0.00 | 0.61 | 0.00 | 88 | 1012.8 |
| 20260901130051 | 69 | 96 | 0.0 | 2.0 | 0.00 | 0.61 | 0.00 | 88 | 1012.6 |
| 20260901124548 | 69 | 105 | 0.0 | 2.0 | 0.00 | 0.61 | 0.00 | 88 | 1012.4 |
| 20260901123045 | 69 | 96 | 0.0 | 2.0 | 0.00 | 0.80 | 0.00 | 87 | 1012.2 |
| 20260901121515 | 70 | 128 | 0.0 | 0.0 | 0.00 | 0.80 | 0.00 | 84 | 1012.1 |
| 20260901120018 | 71 | 128 | 0.0 | 1.0 | 0.00 | 0.80 | 0.00 | 83 | 1012.0 |
| 20260901114540 | 71 | 92 | 0.0 | 0.0 | 0.00 | 0.80 | 0.00 | 83 | 1011.9 |
| 20260901113040 | 70 | 102 | 0.0 | 0.0 | 0.00 | 0.91 | 0.00 | 84 | 1012.0 |
| 20260901111536 | 70 | 101 | 0.0 | 0.0 | 0.00 | 0.91 | 0.00 | 84 | 1012.0 |
| 20260901110035 | 70 | 101 | 0.0 | 0.0 | 0.00 | 0.91 | 0.00 | 84 | 1011.8 |
| 20260901104533 | 70 | 101 | 0.0 | 0.0 | 0.00 | 0.91 | 0.00 | 84 | 1011.9 |
| 20260901103031 | 71 | 101 | 0.0 | 0.0 | 0.00 | 0.91 | 0.00 | 83 | 1011.8 |
| 20260901101550 | 71 | 101 | 0.0 | 2.0 | 0.00 | 0.91 | 0.00 | 82 | 1011.7 |
| 20260901100028 | 71 | 124 | 0.0 | 0.0 | 0.00 | 0.91 | 0.00 | 83 | 1011.5 |
| 20260901094536 | 71 | 124 | 0.0 | 0.0 | 0.00 | 0.91 | 0.00 | 83 | 1011.6 |
| 20260901093025 | 71 | 94 | 0.0 | 0.0 | 0.00 | 0.91 | 0.00 | 83 | 1011.4 |
| 20260901091531 | 71 | 94 | 0.0 | 0.0 | 0.00 | 0.91 | 0.00 | 83 | 1011.6 |
| 20260901090020 | 71 | 101 | 0.0 | 0.0 | 0.00 | 0.91 | 0.00 | 84 | 1011.5 |
| 20260901084533 | 71 | 105 | 0.0 | 0.0 | 0.00 | 0.91 | 0.00 | 84 | 1011.5 |
| 20260901083018 | 71 | 106 | 0.0 | 1.0 | 0.00 | 0.91 | 0.00 | 83 | 1011.6 |
| 20260901081516 | 71 | 108 | 0.0 | 0.0 | 0.00 | 0.91 | 0.00 | 85 | 1011.5 |
| 20260901080032 | 71 | 124 | 0.0 | 0.0 | 0.00 | 0.91 | 0.00 | 85 | 1011.5 |
| 20260901074512 | 71 | 124 | 0.0 | 0.0 | 0.00 | 0.91 | 0.00 | 84 | 1011.6 |
| 20260901073010 | 72 | 124 | 0.0 | 0.0 | 0.00 | 0.91 | 0.91 | 84 | 1011.6 |
| 20260901071507 | 72 | 124 | 0.0 | 3.0 | 0.00 | 0.91 | 0.91 | 83 | 1011.5 |
| 20260901070007 | 72 | 105 | 0.0 | 0.0 | 0.00 | 0.91 | 0.91 | 81 | 1011.5 |
| 20260901064506 | 73 | 98 | 0.0 | 0.0 | 0.00 | 0.91 | 0.91 | 81 | 1011.5 |
| 20260901063005 | 73 | 98 | 0.0 | 0.0 | 0.00 | 0.91 | 0.91 | 81 | 1011.7 |
| 20260901061539 | 73 | 98 | 0.0 | 0.0 | 0.00 | 0.91 | 0.91 | 81 | 1011.8 |
| 20260901060036 | 73 | 98 | 0.0 | 0.0 | 0.00 | 0.91 | 0.91 | 79 | 1011.7 |
| 20260901054503 | 75 | 98 | 0.0 | 0.0 | 0.00 | 0.91 | 0.91 | 75 | 1011.6 |
| 20260901053003 | 75 | 98 | 0.0 | 2.0 | 0.00 | 0.91 | 0.91 | 74 | 1011.3 |
| 20260901051601 | 75 | 104 | 0.0 | 3.0 | 0.00 | 0.91 | 0.91 | 73 | 1011.4 |
| 20260901050100 | 75 | 108 | 0.0 | 2.0 | 0.00 | 0.91 | 0.91 | 73 | 1011.5 |
| 20260901044620 | 75 | 114 | 0.0 | 5.0 | 0.00 | 0.91 | 0.91 | 72 | 1011.7 |
| 20260901043059 | 75 | 84 | 0.0 | 7.0 | 0.00 | 0.91 | 0.91 | 72 | 1011.8 |
| 20260901041558 | 75 | 98 | 1.0 | 4.0 | 0.00 | 0.91 | 0.91 | 72 | 1011.5 |
| 20260901040103 | 75 | 106 | 0.0 | 3.0 | 0.00 | 0.91 | 0.91 | 71 | 1011.4 |
| 20260901034555 | 76 | 87 | 0.0 | 2.0 | 0.00 | 0.91 | 0.91 | 71 | 1011.2 |
| 20260901033055 | 75 | 122 | 0.0 | 2.0 | 0.00 | 0.91 | 0.91 | 72 | 1011.0 |
| 20260901031558 | 75 | 110 | 0.0 | 0.0 | 0.00 | 0.91 | 0.91 | 73 | 1010.9 |